Weather History for Kecskemet, Hungary

Change the Weather History Date:

Monday, October 8, 2012

  Actual Average (LHBP) Record (LHBP)
Temperature  
Mean Temperature 50 °F -  
Max Temperature 59 °F 63 °F 78 °F (2001)
Min Temperature 41 °F 44 °F 33 °F (2002)
Degree Days  
Heating Degree Days 15    
Moisture  
Dew Point 39 °F    
Average Humidity 69    
Maximum Humidity 93    
Minimum Humidity 41    
Precipitation  
Precipitation 0.00 in - - ()
Sea Level Pressure  
Sea Level Pressure 30.08 in    
Wind  
Wind Speed 12 mph ()    
Max Wind Speed 20 mph    
Max Gust Speed 29 mph    
Visibility 5.9 miles    
Events      
Averages and records for this station are not official NWS values.
T = Trace of Precipitation, MM = Missing Value Source: Averaged Metar Reports

Daily Weather History Graph

Daily Weather History Graph

Search for Another Location

Airport:

Trip Planner

Search our weather history database for the weather conditions in past years. The results will help you decide how hot, cold, wet, or windy it might be!

Date:

Astronomy

Oct. 08, 2012 Rise Set
Actual Time 6:49 AM CEST 6:06 PM CEST
Civil Twilight 6:19 AM CEST 6:36 PM CEST
Nautical Twilight 5:43 AM CEST 7:12 PM CEST
Astronomical Twilight 5:08 AM CEST 7:47 PM CEST
Moon 11:46 PM CEST (10/8) 2:07 PM CEST (10/8)
Length of Visible Light 12h 17m
Length of Day
11h 17m
Waning Gibbous, 49% of the Moon is Illuminated
Oct 8
Waning Gibbous
Oct 15
New
Oct 22
First Quarter
Oct 29
Full
Nov 7
Last Quarter

Hourly Weather History & Observations

Time (CEST) Temp. Windchill Dew Point Humidity Pressure Visibility Wind Dir Wind Speed Gust Speed Precip Events Conditions
12:15 AM 48.2 °F - 42.8 °F 82% 29.98 in - NW 17.9 mph - N/A   Clear
12:45 AM 48.2 °F - 41.0 °F 76% 29.98 in 6.2 mi NW 17.9 mph - N/A   Scattered Clouds
1:15 AM 48.2 °F - 41.0 °F 76% 30.01 in 6.2 mi NW 17.9 mph - N/A   Scattered Clouds
1:45 AM 48.2 °F - 39.2 °F 71% 30.01 in 6.2 mi NW 15.7 mph 26.8 mph N/A   Scattered Clouds
2:15 AM 48.2 °F - 39.2 °F 71% 30.04 in 6.2 mi WNW 13.4 mph - N/A   Partly Cloudy
2:45 AM 46.4 °F 39.9 °F 39.2 °F 76% 30.04 in - NW 15.7 mph - N/A   Clear
3:15 AM 46.4 °F 41.2 °F 41.0 °F 81% 30.06 in - WNW 11.2 mph - N/A   Clear
3:45 AM - - - N/A% - 6.2 mi NW 11.2 mph - N/A   Clear
4:15 AM 44.6 °F 38.9 °F 42.8 °F 93% 30.06 in - WNW 11.2 mph - N/A   Clear
4:45 AM 44.6 °F 38.9 °F 41.0 °F 87% 30.06 in - WNW 11.2 mph - N/A   Clear
5:15 AM 46.4 °F 40.5 °F 41.0 °F 81% 30.06 in - WNW 13.4 mph - N/A   Clear
5:45 AM 44.6 °F 38.2 °F 41.0 °F 87% 30.09 in - WNW 13.4 mph - N/A   Clear
6:15 AM 44.6 °F 37.6 °F 42.8 °F 93% 30.09 in - WNW 15.7 mph - N/A   Clear
6:45 AM - - - N/A% - - WNW 13.4 mph - N/A   Clear
7:15 AM 46.4 °F 39.9 °F 42.8 °F 87% 30.09 in - WNW 15.7 mph - N/A   Clear
7:45 AM 48.2 °F - 42.8 °F 82% 30.12 in - WNW 13.4 mph - N/A   Clear
8:15 AM 48.2 °F - 42.8 °F 82% 30.12 in - WNW 13.4 mph - N/A   Clear
8:38 AM 50.0 °F - 42.8 °F 76% 30.12 in - WNW 15.7 mph 26.8 mph N/A   Clear
8:45 AM 50.0 °F - 42.8 °F 76% 30.12 in - WNW 15.7 mph - N/A   Clear
9:15 AM 51.8 °F - 42.8 °F 71% 30.12 in 6.2 mi WNW 15.7 mph - N/A   Partly Cloudy
9:45 AM - - - N/A% - 6.2 mi WNW 13.4 mph - N/A   Clear
10:15 AM 53.6 °F - 41.0 °F 62% 30.15 in 6.2 mi NW 20.1 mph - N/A   Partly Cloudy
10:45 AM 53.6 °F - 42.8 °F 67% 30.12 in 6.2 mi WNW 15.7 mph - N/A   Partly Cloudy
11:15 AM 55.4 °F - 39.2 °F 54% 30.12 in 6.2 mi NW 17.9 mph 29.1 mph N/A   Partly Cloudy
11:45 AM 57.2 °F - 39.2 °F 51% 30.12 in 6.2 mi NW 17.9 mph 29.1 mph N/A   Partly Cloudy
12:15 PM 57.2 °F - 37.4 °F 48% 30.12 in 6.2 mi NW 17.9 mph 29.1 mph N/A   Partly Cloudy
12:45 PM - - - N/A% - 6.2 mi NW 15.7 mph 26.8 mph N/A   Scattered Clouds
1:15 PM 57.2 °F - 33.8 °F 41% 30.09 in 6.2 mi NW 15.7 mph 29.1 mph N/A   Partly Cloudy
2:15 PM 59.0 °F - 35.6 °F 42% 30.09 in 6.2 mi NW 13.4 mph 24.6 mph N/A   Scattered Clouds
2:45 PM 59.0 °F - 37.4 °F 45% 30.09 in 6.2 mi NW 13.4 mph - N/A   Scattered Clouds
3:15 PM 57.2 °F - 35.6 °F 44% 30.09 in - NNW 11.2 mph 22.4 mph N/A   Clear
3:45 PM - - - N/A% - - WNW 11.2 mph - N/A   Clear
4:15 PM 57.2 °F - 35.6 °F 44% 30.09 in - WNW 13.4 mph - N/A   Clear
4:45 PM 55.4 °F - 33.8 °F 44% 30.09 in - NW 13.4 mph - N/A   Clear
5:15 PM 53.6 °F - 33.8 °F 47% 30.09 in - WNW 8.9 mph - N/A   Clear
5:45 PM 53.6 °F - 35.6 °F 51% 30.09 in - WNW 8.9 mph - N/A   Clear
6:15 PM 51.8 °F - 35.6 °F 54% 30.09 in - WNW 4.5 mph - N/A   Clear
6:45 PM - - - N/A% - - WNW 6.7 mph - N/A   Clear
7:15 PM 48.2 °F - 35.6 °F 62% 30.09 in - West 4.5 mph - N/A   Clear
8:15 PM 42.8 °F 40.2 °F 35.6 °F 76% 30.09 in - West 4.5 mph - N/A   Clear
8:45 PM 42.8 °F 40.2 °F 35.6 °F 76% 30.09 in - West 4.5 mph - N/A   Clear
9:45 PM - - - N/A% - 0.6 mi Variable 4.5 mph - N/A   Clear
10:15 PM 44.6 °F 42.3 °F 37.4 °F 76% 30.06 in - West 4.5 mph - N/A   Clear
10:45 PM 41.0 °F - 35.6 °F 81% 30.06 in - West 2.2 mph - N/A   Clear
11:15 PM 41.0 °F - 35.6 °F 81% 30.06 in - Calm Calm - N/A   Clear
11:45 PM 41.0 °F - 35.6 °F 81% 30.06 in - WNW 2.2 mph - N/A   Clear